User: anonymous   Login
Location: Unspecified
(0.0000°N, 0.0000°E)
Time: 06:18:23
(UTC+00:00)
Language:

BEESAT 4 - Orbit

View from above orbital plane
View from above orbital plane
View from above satellite
View from above satellite

Ground track
Ground track

The orbit data is extracted from the following two-line orbital elements,

1 41619U 16040W   18116.59238535 +.00001560 +00000-0 +71341-4 0  9991
2 41619 097.4196 180.4445 0013032 057.0546 303.1942 15.21972520090242
Epoch (UTC): 26 April 2018 14:13:02
Eccentricity: 0.0013032
inclination: 97.4196°
perigee height: 491 km
apogee height: 509 km
right ascension of ascending node: 180.4445°
argument of perigee: 57.0546°
revolutions per day: 15.21972520
mean anomaly at epoch: 303.1942°
orbit number at epoch: 9024

The dashed part of the orbit path shows where the satellite is in the earth's shadow,  

DLR